map of VIX home
VIX - Airport
Location
City:  Vitória, Espírito Santo, Brazil
Name:Eurico de Aguiar Salles Airport
Old (Alt.):Goiabeiras Airport
ICAO:SBVT
IATA:VIX

Details
Type:Airport (Aerodrome, Airfield)
Use:Public/Civil
Latitude:20°15'29"S (-20.258055)
Longitude:40°17'11"W (-40.286388)
Elevation:10 ft (3 m)
Variation:23.79°W (WMM2015 magnetic declination)
-0.07° annual change
Runways:1
Longest:5741 × 148 ft (1750 × 45 m), paved

Time
Time Zone:UTC-3 (DST-2)
Local Time:

Weather
METAR:SBVT 171400Z 07008KT 9999 BKN025 BKN070 26/20 Q1024
TAF:SBVT 171000Z 1712/1812 06008KT 7000 BKN015 SCT020 TX25/1715Z TN22/1807Z PROB40
TEMPO 1712/1715 5000 RA BR BKN010 SCT017
RMK PCN

Related Locations
Nearby:
Farthest:IWO: 12103 mi / 19479 km
Iwo Jima [Iwo Jima AB], Iwo Jima Island, 13, JP

Find:

   beyond  
but within

Other Information
Maps:
NOTAMs:
Links:
Sources:

  
flag of Brazil
flag of Espírito Santo
  

Sectional Chart

Flight Planning
at skyvector.com

Satellite Image

Google Maps Satellite view

 

Copyright © 2004-2017 Karl L. Swartz. All rights reserved.
The Great Circle Mapper name and logo are trademarks of the Great Circle Mapper.
All other trademarks mentioned herein belong to their respective owners.
Please see credits for attibutions and further copyright information.

  Follow gcmap on Facebook Follow gcmap on Twitter Follow gcmap on Google+ GCmap on LinkedIn

hCard Microformat

Geo Microformat